Terminal Aerodrome Forecast
Issued by NWS

Home | Current Version | Previous Version | Graphics & Text | Print | Product List | Glossary On
Versions: 1 2 3 4 5 6 7 8 9 10 11 12 13 14 15 16
380
FTUS45 KGGW 191439 AAA
TAFSDY
TAF AMD
KSDY 191439Z 1915/2012 VRB04KT 1/2SM FG OVC002
     FM191600 09005KT 3SM BR SCT004 BKN035
     FM191700 09010KT P6SM SCT035
     FM201100 07006KT P6SM BKN026=

USA.gov is the U.S. government's official web portal to all federal, state and local government web resources and services.